Weather History for Grazzanise, Italy

Change the Weather History Date:

Wednesday, February 26, 2014

  Actual Average (LIRN) Record (LIRN)
Temperature  
Mean Temperature 48 °F -  
Max Temperature 59 °F 59 °F 62 °F (1998)
Min Temperature 36 °F 42 °F 32 °F (2003)
Degree Days  
Heating Degree Days 18    
Moisture  
Dew Point 44 °F    
Average Humidity 85    
Maximum Humidity 94    
Minimum Humidity 63    
Precipitation  
Precipitation 0.04 in 0.10 in - ()
Sea Level Pressure  
Sea Level Pressure 30.19 in    
Wind  
Wind Speed 4 mph ()    
Max Wind Speed 8 mph    
Max Gust Speed -    
Visibility 5.6 miles    
Events Rain    
Averages and records for this station are not official NWS values.
T = Trace of Precipitation, MM = Missing Value Source: Averaged Metar Reports

Daily Weather History Graph

Daily Weather History Graph

Search for Another Location

Airport:

Trip Planner

Search our weather history database for the weather conditions in past years. The results will help you decide how hot, cold, wet, or windy it might be!

Date:

Astronomy

Feb. 26, 2014 Rise Set
Actual Time 6:42 AM CET 5:50 PM CET
Civil Twilight 6:15 AM CET 6:18 PM CET
Nautical Twilight 5:43 AM CET 6:50 PM CET
Astronomical Twilight 5:11 AM CET 7:22 PM CET
Moon 4:16 AM CET 2:44 PM CET
Length of Visible Light 12h 03m
Length of Day
11h 08m
Waning Crescent, 12% of the Moon is Illuminated
Feb 26
Waning Crescent
Mar 1
New
Mar 8
First Quarter
Mar 16
Full
Mar 24
Last Quarter

Hourly Weather History & Observations

Time (CET) Temp. Windchill Dew Point Humidity Pressure Visibility Wind Dir Wind Speed Gust Speed Precip Events Conditions
12:55 AM 41.0 °F 39.0 °F 39.2 °F 93% 30.18 in 3.1 mi ENE 3.5 mph - N/A   Partly Cloudy
1:00 AM 41 °F - 38 °F 86% 30.19 in 3 mi ENE 3.5 mph - -   Mist
1:55 AM 39.2 °F 37.0 °F 37.4 °F 93% 30.18 in 2.5 mi NE 3.5 mph - N/A   Partly Cloudy
2:55 AM 39.2 °F 35.9 °F 35.6 °F 87% 30.18 in 3.1 mi NE 4.6 mph - N/A   Partly Cloudy
3:55 AM 37.4 °F 34.9 °F 35.6 °F 93% 30.15 in 3.1 mi NNE 3.5 mph - N/A   Partly Cloudy
4:00 AM 38 °F - 35 °F 84% 30.18 in 3 mi NNE 3.5 mph - -   Mist
4:55 AM 37.4 °F 33.8 °F 33.8 °F 87% 30.15 in 3.1 mi NNE 4.6 mph - N/A   Partly Cloudy
5:55 AM 37.4 °F 32.8 °F 33.8 °F 87% 30.18 in 3.1 mi NNE 5.8 mph - N/A   Partly Cloudy
6:55 AM 35.6 °F 30.7 °F 32.0 °F 87% 30.18 in 3.7 mi NNE 5.8 mph - N/A   Partly Cloudy
7:00 AM 36 °F - 33 °F 84% 30.20 in 4 mi NNE 5.8 mph - -   Mist
7:55 AM 39.2 °F 35.9 °F 35.6 °F 87% 30.18 in 6.2 mi NE 4.6 mph - N/A   Partly Cloudy
8:55 AM 48.2 °F - 44.6 °F 87% 30.21 in 6.2 mi NNE 5.8 mph - N/A   Partly Cloudy
9:55 AM 50.0 °F - 46.4 °F 87% 30.21 in 6.2 mi NNE 4.6 mph - N/A   Scattered Clouds
10:00 AM 49 °F - 46 °F 85% 30.22 in 7 mi NNE 4.6 mph - -   Scattered Clouds
10:55 AM 51.8 °F - 48.2 °F 88% 30.21 in 6.2 mi NNE 4.6 mph - N/A   Mostly Cloudy
11:55 AM 57.2 °F - 50.0 °F 77% 30.21 in 6.2 mi Variable 1.2 mph - N/A   Mostly Cloudy
12:55 PM 57.2 °F - 48.2 °F 72% 30.21 in 6.2 mi SW 8.1 mph - N/A   Mostly Cloudy
1:00 PM 58 °F - 49 °F 63% 30.22 in 9 mi SW 8.1 mph - -   Partly Cloudy
1:55 PM 59.0 °F - 48.2 °F 67% 30.21 in 6.2 mi SW 8.1 mph - N/A   Scattered Clouds
2:55 PM 59.0 °F - 48.2 °F 67% 30.18 in 6.2 mi SW 8.1 mph - N/A   Scattered Clouds
3:55 PM 59.0 °F - 51.8 °F 77% 30.18 in 6.2 mi WSW 6.9 mph - N/A   Partly Cloudy
4:00 PM 58 °F - 51 °F 71% 30.20 in 9 mi WSW 6.9 mph - -   Scattered Clouds
4:55 PM 55.4 °F - 51.8 °F 88% 30.18 in 6.2 mi WSW 5.8 mph - N/A   Partly Cloudy
5:55 PM 53.6 °F - 51.8 °F 94% 30.18 in 6.2 mi SSW 2.3 mph - N/A   Scattered Clouds
6:55 PM 53.6 °F - 51.8 °F 94% 30.18 in 6.2 mi ESE 3.5 mph - N/A Rain Light Rain
7:00 PM 54 °F - 53 °F 93% 30.19 in 9 mi ESE 3.5 mph - - Rain Light Rain
7:55 PM 53.6 °F - 51.8 °F 94% 30.18 in 6.2 mi Calm Calm - N/A   Scattered Clouds
8:55 PM 51.8 °F - 50.0 °F 94% 30.18 in 6.2 mi NNE 3.5 mph - N/A Rain Light Rain
9:55 PM 51.8 °F - 48.2 °F 88% 30.18 in 6.2 mi East 4.6 mph - N/A   Scattered Clouds
10:00 PM 52 °F - 49 °F 85% 30.21 in 9 mi East 4.6 mph - -   Partly Cloudy
10:55 PM 50.0 °F - 46.4 °F 87% 30.18 in 6.2 mi ENE 3.5 mph - N/A   Scattered Clouds
11:55 PM 50.0 °F - 48.2 °F 94% 30.18 in 6.2 mi ENE 5.8 mph - N/A   Scattered Clouds